Weather History for Liberia, Costa Rica

Change the Weather History Date:

Sunday, August 5, 2012

  Actual Average Record
Temperature  
Mean Temperature 84 °F -  
Max Temperature 96 °F 87 °F 96 °F (2012)
Min Temperature 72 °F 74 °F 71 °F (2006)
Cooling Degree Days 19    
Growing Degree Days 34 (Base 50)    
Moisture  
Dew Point 67 °F    
Average Humidity 50    
Maximum Humidity 88    
Minimum Humidity 27    
Precipitation  
Precipitation 0.00 in - - ()
Sea Level Pressure  
Sea Level Pressure 29.85 in    
Wind  
Wind Speed 8 mph ()    
Max Wind Speed 16 mph    
Max Gust Speed -    
Visibility 7.7 miles    
Events      
Averages and records for this station are not official NWS values.
T = Trace of Precipitation, MM = Missing Value Source: Averaged Metar Reports

Daily Weather History Graph

Daily Weather History Graph

Search for Another Location

Airport:

Trip Planner

Search our weather history database for the weather conditions in past years. The results will help you decide how hot, cold, wet, or windy it might be!

Date:

Astronomy

Aug. 05, 2012 Rise Set
Actual Time 5:31 AM CST 6:04 PM CST
Civil Twilight 5:09 AM CST 6:26 PM CST
Nautical Twilight 4:43 AM CST 6:52 PM CST
Astronomical Twilight 4:17 AM CST 7:18 PM CST
Moon 8:42 PM CST (8/5) 8:25 AM CST (8/5)
Length of Visible Light 13h 16m
Length of Day
12h 32m
Waning Gibbous, 86% of the Moon is Illuminated
Aug 5
Waning Gibbous
Aug 9
Last Quarter
Aug 17
New
Aug 24
First Quarter
Aug 31
Full

Hourly Weather History & Observations

Time (CST) Temp. Heat Index Dew Point Humidity Pressure Visibility Wind Dir Wind Speed Gust Speed Precip Events Conditions
6:00 AM 73 °F - 70 °F 88% 29.87 in 12 mi Calm Calm - -   Overcast
6:00 AM 73.4 °F - 69.8 °F 88% 29.85 in 6.2 mi Calm Calm - N/A   Mostly Cloudy
7:00 AM 80.6 °F 84.6 °F 71.6 °F 74% 29.86 in 6.2 mi East 5.8 mph - N/A   Mostly Cloudy
8:00 AM 84.2 °F 87.3 °F 68.0 °F 58% 29.87 in 6.2 mi ENE 16.1 mph - N/A   Mostly Cloudy
9:00 AM 88 °F - 67 °F 41% 29.89 in 12 mi ENE 16.1 mph - -   Overcast
9:00 AM 87.8 °F 91.4 °F 68.0 °F 52% 29.87 in 6.2 mi ENE 16.1 mph - N/A   Mostly Cloudy
10:00 AM 89.6 °F 92.2 °F 66.2 °F 46% 29.87 in 6.2 mi ENE 13.8 mph - N/A   Mostly Cloudy
11:00 AM 91.4 °F 94.0 °F 66.2 °F 43% 29.87 in 6.2 mi ENE 15.0 mph - N/A   Mostly Cloudy
12:00 PM 93 °F - 65 °F 30% 29.87 in 12 mi NE 13.8 mph - -   Overcast
12:00 PM 93.2 °F 94.9 °F 64.4 °F 38% 29.85 in 6.2 mi NE 13.8 mph - N/A   Mostly Cloudy
1:00 PM 93.2 °F 94.9 °F 64.4 °F 38% 29.85 in 6.2 mi NE 13.8 mph - N/A   Mostly Cloudy
2:00 PM 93.2 °F 94.1 °F 62.6 °F 36% 29.82 in 6.2 mi NE 15.0 mph - N/A   Mostly Cloudy
3:00 PM 94 °F - 64 °F 27% 29.81 in 12 mi NE 10.4 mph - -   Overcast
3:00 PM 95.0 °F 97.0 °F 64.4 °F 36% 29.80 in 6.2 mi NE 10.4 mph - N/A   Partly Cloudy
4:00 PM 93.2 °F 94.9 °F 64.4 °F 38% 29.79 in 6.2 mi NE 12.7 mph - N/A   Overcast
5:00 PM 91.4 °F 93.2 °F 64.4 °F 41% 29.81 in 6.2 mi NE 11.5 mph - N/A   Overcast
6:00 PM 88 °F - 67 °F 40% 29.84 in 12 mi NE 5.8 mph - -   Overcast
6:00 PM 87.8 °F 90.4 °F 66.2 °F 49% 29.83 in 6.2 mi NE 5.8 mph - N/A   Overcast
7:00 PM 84.2 °F 90.9 °F 73.4 °F 70% 29.86 in 6.2 mi West 5.8 mph - N/A   Overcast
8:00 PM 80.6 °F 84.6 °F 71.6 °F 74% 29.88 in 6.2 mi South 2.3 mph - N/A   Overcast